Find Starlink 35458

NORAD ID: 65925 Int'l Des: 2025-225 Owner: SPXS Country: US Constellation: starlink operational
LEOCIRCULAR

現在のビュー

3D地球を読み込み中...

About Starlink 35458

Starlink 35458 (NORAD 65925) is a starlink constellation satellite (v2 mini) launched Oct 8, 2025 by SPXS of US. It operates in LEO, CIRCULAR orbit with a mass of 575.00 kg.

次回通過

Passes for default location (London). Set your location on the main map for personalized predictions.

高度履歴

Loading altitude history...

軌道要素

1 65925U 25225R 26265.48263226 .00012996 00000-0 39520-3 0 9996
2 65925 53.1595 328.3564 0001814 50.6688 309.4475 15.34391183 54587
Epoch: Sep 22, 2026 • Age: 16 hours

現在のステータス

高度 463.4 km
遠地点 / 近地点 N/A
速度 7.64 km/s
衛星直下点 20.73°N, 68.54°E
打ち上げ日 Oct 8, 2025
運用期間 0.9 years
タイプ internet

技術仕様

分類 Payload
質量 575.00 kg
乾燥質量 530.00 kg
長さ 0.30 m
スパン 29.00 m
形状 ? Box + pan
製造者 SPXS
バスタイプ Starlink V2MO
フェーズステータス In Orbit
所有者/国 SPXS/US

Most Searched